Stations météo

réclame
Mon MeteoGroup
Eskdalemuir, Grande-Bretagne (3162): Température de l'air & dewpoint: 11.10.2018 21:00:00 - 17.10.2018 21:00:00 (BST)Eskdalemuir, Grande-Bretagne (3162): Température de l'air -20cm & Température de l'air -100cm: 11.10.2018 21:00:00 - 17.10.2018 21:00:00 (BST)Eskdalemuir, Grande-Bretagne (3162): Vitesse du vent & gusts: 11.10.2018 21:00:00 - 17.10.2018 21:00:00 (BST)Eskdalemuir, Grande-Bretagne (3162): Direction du vent: 11.10.2018 21:00:00 - 17.10.2018 21:00:00 (BST)Eskdalemuir, Grande-Bretagne (3162): reduced air pressure: 11.10.2018 21:00:00 - 17.10.2018 21:00:00 (BST)Eskdalemuir, Grande-Bretagne (3162): visibility: 11.10.2018 21:00:00 - 17.10.2018 21:00:00 (BST)Eskdalemuir, Grande-Bretagne (3162): Ensoleillement: 11.10.2018 21:00:00 - 17.10.2018 21:00:00 (BST)Eskdalemuir, Grande-Bretagne (3162): Quantités de précipitations: 11.10.2018 21:00:00 - 17.10.2018 21:00:00 (BST)
Date & Time tt [°C] td [°C] tt -20cm [°C] tt -100cm [°C] ff [km/h] ff [knt] fx [km/h] fx [knt] dd ppp [hPa] vv [km] sd [min] rr [mm]
17.10.2018 21:00:00 2,4 2,3 - - 4 2 - - NW 1026,1 30 0 0,0
17.10.2018 20:00:00 3,6 2,8 - - 8 4 - - W 1025,1 35 0 0,0
17.10.2018 19:00:00 5,7 4,0 - - 2 1 - - S 1024,3 45 0 0,0
17.10.2018 18:00:00 6,9 4,9 - - 13 7 - - W 1022,8 40 30 0,0
17.10.2018 17:00:00 10,5 6,5 - - 4 2 - - SSW 1021,4 30 48 0,0
17.10.2018 16:00:00 10,6 5,9 - - 8 4 - - W 1020,9 35 18 0,0
17.10.2018 15:00:00 11,0 6,8 - - 13 7 - - WNW 1020,2 35 18 0,0
17.10.2018 14:00:00 10,7 7,1 - - 15 8 - - W 1019,6 40 54 0,0
17.10.2018 13:00:00 11,5 8,6 - - 15 8 - - W 1019,0 15 18 0,2
17.10.2018 12:00:00 9,9 8,9 - - 13 7 - - S 1018,4 5 0 0,0
17.10.2018 11:00:00 10,0 8,4 - - 11 6 - - S 1017,6 15 6 0,0
17.10.2018 10:00:00 9,5 8,0 11,2 11,7 11 6 - - S 1016,7 15 0 0,0
17.10.2018 09:00:00 8,9 8,1 - - 11 6 - - SSW 1015,9 12 0 0,0
17.10.2018 08:00:00 8,7 8,0 - - 9 5 - - SSW 1015,0 8 0 0,0
17.10.2018 07:00:00 9,1 8,2 - - 11 6 - - SW 1014,2 13 0 0,0
17.10.2018 06:00:00 9,9 9,1 - - 9 5 - - SSW 1013,5 11 0 0,0
17.10.2018 05:00:00 9,8 8,8 - - 11 6 - - SSW 1012,9 10 0 0,0
17.10.2018 04:00:00 10,1 8,9 - - 13 7 - - SSW 1012,4 11 0 0,0
17.10.2018 03:00:00 9,9 8,5 - - 15 8 - - SW 1012,2 13 0 0,0
17.10.2018 02:00:00 9,5 8,5 - - 13 7 - - SSW 1012,0 12 0 0,0
17.10.2018 01:00:00 10,1 9,1 - - 16 9 - - SW 1011,8 13 - 0,0
17.10.2018 00:00:00 10,5 9,5 - - 18 10 - - SW 1011,2 15 0 0,0
16.10.2018 23:00:00 11,2 9,9 - - 21 11 - - SSW 1010,9 17 0 0,0
16.10.2018 22:00:00 11,5 10,5 - - 21 11 - - SSW 1010,7 20 0 0,0
16.10.2018 21:00:00 11,7 10,9 - - 26 14 - - SSW 1010,2 15 0 0,0
16.10.2018 20:00:00 11,6 10,9 - - 22 12 - - SSW 1010,2 20 0 0,4
16.10.2018 19:00:00 11,4 11,0 - - 18 10 - - SSW 1010,0 4,6 0 0,8
16.10.2018 18:00:00 11,1 10,9 - - 22 12 - - S 1009,8 5 0 1,2
16.10.2018 17:00:00 10,9 10,6 - - 24 13 - - S 1009,8 2,8 0 1,0
16.10.2018 16:00:00 11,0 10,4 - - 29 16 48 26 SSW 1009,9 3,0 0 0,4
16.10.2018 15:00:00 12,0 9,9 - - 26 14 52 28 SSW 1009,9 16 0 0,0
16.10.2018 14:00:00 12,1 10,1 - - 35 19 57 31 SSW 1009,8 25 0 0,0
16.10.2018 13:00:00 11,9 10,8 - - 22 12 - - S 1010,0 18 0 0,0
16.10.2018 12:00:00 11,4 10,5 - - 28 15 - - S 1010,3 8 0 0,0
16.10.2018 11:00:00 10,1 9,8 - - 18 10 - - S 1011,0 3,5 0 0,0
16.10.2018 10:00:00 9,6 9,5 11,4 11,5 18 10 - - S 1011,1 5 0 0,4
16.10.2018 09:00:00 8,4 8,4 - - 13 7 - - S 1011,4 2,2 0 0,2
16.10.2018 08:00:00 6,3 6,1 - - 8 4 - - SSE 1011,9 1,5 0 0,2
16.10.2018 07:00:00 5,6 5,4 - - 2 1 - - NNW 1012,3 8 0 0,0
16.10.2018 06:00:00 4,5 4,3 - - 4 2 - - WNW 1012,6 2,9 0 0,2
16.10.2018 05:00:00 4,0 3,8 - - 5 3 - - NW 1013,2 1,8 0 0,0
16.10.2018 04:00:00 2,2 2,2 - - 4 2 - - N 1014,5 11 0 0,0
16.10.2018 03:00:00 1,2 0,9 - - 2 1 - - NNW 1015,0 11 0 0,2
16.10.2018 02:00:00 0,5 0,5 - - 4 2 - - NNW 1015,7 9 0 0,0
16.10.2018 01:00:00 0,3 0,2 - - 4 2 - - NNW 1016,3 12 - 0,0
16.10.2018 00:00:00 0,4 0,2 - - 2 1 - - NNW 1017,1 8 0 0,0
15.10.2018 23:00:00 0,8 0,8 - - 4 2 - - NW 1017,1 26 0 0,0
15.10.2018 22:00:00 1,5 1,2 - - 2 1 - - NW 1017,2 30 0 0,0
15.10.2018 21:00:00 1,9 1,7 - - 4 2 - - NNW 1017,6 50 0 0,0
15.10.2018 20:00:00 3,0 2,7 - - 4 2 - - NW 1017,2 50 0 0,0
15.10.2018 19:00:00 3,9 3,6 - - 5 3 - - NW 1016,7 50 0 0,0
15.10.2018 18:00:00 7,6 5,4 - - 4 2 - - NW 1015,9 50 54 0,0
15.10.2018 17:00:00 11,3 3,8 - - 4 2 - - SSE 1015,3 50 60 0,0
15.10.2018 16:00:00 11,8 2,7 - - 5 3 - - E 1015,2 60 60 0,0
15.10.2018 15:00:00 12,0 3,4 - - 4 2 - - E 1015,4 60 60 0,0
15.10.2018 14:00:00 11,3 3,2 - - 8 4 - - SE 1015,8 50 60 0,0
15.10.2018 13:00:00 10,1 3,0 - - 8 4 - - SE 1016,2 50 60 0,0
15.10.2018 12:00:00 6,5 6,1 - - 0 0 - - N 1016,8 50 6 0,0
15.10.2018 11:00:00 4,4 4,3 - - 2 1 - - NE 1016,7 50 0 0,0
15.10.2018 10:00:00 1,8 1,6 11,9 11,5 4 2 - - SE 1016,7 50 0 0,0
15.10.2018 09:00:00 1,7 1,4 - - 4 2 - - NW 1016,1 40 0 0,0
15.10.2018 08:00:00 0,6 0,6 - - 5 3 - - N 1015,6 40 0 0,0
15.10.2018 07:00:00 0,6 0,6 - - 2 1 - - NNW 1015,6 35 0 0,0
15.10.2018 06:00:00 0,1 0,1 - - 4 2 - - NW 1015,4 26 0 0,0
15.10.2018 05:00:00 -0,2 -0,2 - - 2 1 - - WNW 1015,3 27 0 0,0
15.10.2018 04:00:00 -0,3 -0,3 - - 4 2 - - NW 1015,3 40 0 0,0
15.10.2018 03:00:00 -0,2 -0,2 - - 5 3 - - N 1015,2 11 0 0,0
15.10.2018 02:00:00 -0,7 -0,8 - - 2 1 - - NNW 1014,8 2,3 0 0,0
15.10.2018 01:00:00 0,6 0,5 - - 2 1 - - NW 1014,4 30 - 0,0
15.10.2018 00:00:00 0,8 0,7 - - 2 1 - - NW 1014,0 26 0 0,0
14.10.2018 23:00:00 0,9 0,9 - - 2 1 - - NE 1013,9 15 0 0,0
14.10.2018 22:00:00 2,0 1,6 - - 2 1 - - WNW 1013,5 30 0 0,0
14.10.2018 21:00:00 1,9 1,8 - - 5 3 - - WNW 1013,1 30 0 0,0
14.10.2018 20:00:00 3,7 3,3 - - 4 2 - - WNW 1012,3 30 0 0,0
14.10.2018 19:00:00 5,2 4,3 - - 4 2 - - NNW 1011,6 50 0 0,0
14.10.2018 18:00:00 7,3 6,0 - - 8 4 - - NW 1010,2 45 42 0,0
14.10.2018 17:00:00 9,0 6,6 - - 2 1 - - WSW 1009,3 30 24 0,0
14.10.2018 16:00:00 10,5 5,3 - - 5 3 - - WNW 1009,0 45 48 0,0
14.10.2018 15:00:00 12,2 5,8 - - 4 2 - - E 1008,6 23 54 0,0
14.10.2018 14:00:00 8,8 7,8 - - 5 3 - - SE 1009,5 25 0 0,0
14.10.2018 13:00:00 8,0 7,4 - - 5 3 - - SSE 1009,1 30 0 0,0
14.10.2018 12:00:00 7,1 6,6 - - 2 1 - - SW 1008,7 28 0 0,0
14.10.2018 11:00:00 6,8 6,4 - - 4 2 - - WNW 1008,8 45 0 0,0
14.10.2018 10:00:00 6,3 6,0 12,2 11,9 4 2 - - E 1008,7 35 0 0,0
14.10.2018 09:00:00 5,9 5,5 - - 4 2 - - WNW 1008,6 30 0 0,0
14.10.2018 08:00:00 6,0 5,3 - - 4 2 - - S 1007,5 45 0 0,0
14.10.2018 07:00:00 6,3 5,3 - - 5 3 - - W 1006,5 40 0 0,0
14.10.2018 06:00:00 7,0 5,5 - - 11 6 - - W 1006,0 50 0 0,0
14.10.2018 05:00:00 6,9 5,5 - - 5 3 - - WSW 1005,1 50 0 0,0
14.10.2018 04:00:00 7,8 6,1 - - 13 7 - - WSW 1004,2 50 0 0,0
14.10.2018 03:00:00 8,4 7,2 - - 15 8 - - W 1002,7 40 0 0,0
14.10.2018 02:00:00 8,9 7,8 - - 18 10 - - W 1001,8 22 0 0,0
14.10.2018 01:00:00 9,7 8,3 - - 21 11 - - WSW 1000,2 11 - 0,2
14.10.2018 00:00:00 11,4 10,8 - - 22 12 - - SSW 998,9 20 0 0,4
13.10.2018 23:00:00 12,1 10,9 - - 28 15 46 25 SSW 998,2 21 0 0,0
13.10.2018 22:00:00 12,7 11,9 - - 31 17 59 32 S 997,6 23 0 0,0
13.10.2018 21:00:00 13,2 12,8 - - 37 20 59 32 S 997,0 6 0 0,2
13.10.2018 20:00:00 13,7 13,2 - - 35 19 63 34 S 996,0 11 0 0,8
13.10.2018 19:00:00 14,9 14,4 - - 44 24 76 41 S 995,0 9 0 3,2
13.10.2018 18:00:00 15,0 14,3 - - 34 18 52 28 SSE 994,4 5 0 6,8
13.10.2018 17:00:00 14,8 14,0 - - 28 15 55 30 S 994,9 40 0 0,2
13.10.2018 16:00:00 14,7 14,1 - - 31 17 52 28 S 995,7 10 0 1,0
13.10.2018 15:00:00 13,0 12,7 - - 2 1 - - SSW 996,7 11 0 1,0
13.10.2018 14:00:00 12,8 12,3 - - 2 1 - - W 997,1 8 0 1,0
13.10.2018 13:00:00 12,4 12,0 - - 2 1 - - SSE 998,1 11 0 -
13.10.2018 12:00:00 12,5 12,3 - - 9 5 - - SSW 998,7 4,7 0 2,2
13.10.2018 11:00:00 12,6 12,6 - - 5 3 - - SE 999,2 7 0 4,0
13.10.2018 10:00:00 12,4 12,3 12,0 11,9 5 3 - - SSE 1000,6 4,0 0 2,8
13.10.2018 09:00:00 11,6 11,6 - - 4 2 - - ESE 1001,2 2,9 0 2,4
13.10.2018 08:00:00 11,3 11,3 - - 2 1 - - S 1002,2 2,1 0 2,2
13.10.2018 07:00:00 11,3 11,2 - - 5 3 - - SE 1001,9 4,6 0 1,8
13.10.2018 06:00:00 11,2 11,0 - - 8 4 - - S 1002,5 5 0 2,0
13.10.2018 05:00:00 10,9 10,6 - - 9 5 - - SSE 1002,3 9 0 1,0
13.10.2018 04:00:00 11,5 11,0 - - 15 8 - - S 1002,8 11 0 0,4
13.10.2018 03:00:00 11,8 11,2 - - 15 8 - - S 1002,6 11 0 0,2
13.10.2018 02:00:00 11,9 11,2 - - 21 11 - - S 1002,1 15 0 0,0
13.10.2018 01:00:00 12,0 11,3 - - 22 12 - - S 1002,1 17 - 0,0
13.10.2018 00:00:00 12,0 10,9 - - 24 13 - - SSW 1000,9 28 0 0,0
12.10.2018 23:00:00 11,8 11,0 - - 28 15 46 25 S 999,9 35 0 0,0
12.10.2018 22:00:00 11,9 11,2 - - 28 15 48 26 SSW 998,6 40 0 0,0
12.10.2018 21:00:00 11,6 11,2 - - 28 15 46 25 SSW 997,4 45 0 0,0
12.10.2018 20:00:00 11,5 11,1 - - 28 15 46 25 SSW 996,1 50 0 0,2
12.10.2018 19:00:00 11,5 11,1 - - 26 14 - - S 994,8 4,0 0 1,8
12.10.2018 18:00:00 11,1 10,7 - - 22 12 - - SSW 994,0 3,7 0 4,4
12.10.2018 17:00:00 10,9 10,4 - - 15 8 - - SSW 992,6 5 0 3,4
12.10.2018 16:00:00 11,8 11,2 - - 21 11 - - SSW 991,9 4,8 0 7,0
12.10.2018 15:00:00 11,9 11,4 - - 26 14 48 26 SSW 991,9 4,0 0 9,2
12.10.2018 14:00:00 12,3 11,7 - - 26 14 57 31 S 993,8 3,2 0 5,6
12.10.2018 13:00:00 13,4 11,9 - - 35 19 68 37 S 995,2 3,5 0 1,4
12.10.2018 12:00:00 15,1 11,4 - - 37 20 61 33 S 995,1 25 0 0,0
12.10.2018 11:00:00 13,9 11,0 - - 35 19 65 35 S 995,7 22 0 0,0
12.10.2018 10:00:00 13,6 11,0 12,0 11,9 39 21 67 36 S 995,3 35 0 0,0
12.10.2018 09:00:00 12,1 10,6 - - 34 18 57 31 SSE 994,6 50 0 0,0
12.10.2018 08:00:00 10,9 9,8 - - 39 21 57 31 SSE 994,0 8 0 0,2
12.10.2018 07:00:00 9,9 9,4 - - 28 15 48 26 SSE 994,9 4,1 0 4,0
12.10.2018 06:00:00 9,5 8,3 - - 22 12 - - SSE 996,5 9 0 0,4
12.10.2018 05:00:00 9,2 6,7 - - 16 9 - - SSE 997,2 30 0 0,0
12.10.2018 04:00:00 7,8 7,3 - - 8 4 - - SE 998,6 27 0 0,0
12.10.2018 03:00:00 7,3 7,1 - - 5 3 - - S 1000,2 8 0 0,0
12.10.2018 02:00:00 7,7 7,5 - - 9 5 - - S 1001,9 8 0 0,0
12.10.2018 01:00:00 9,1 8,9 - - 8 4 - - SSE 1001,6 8 - 0,0
12.10.2018 00:00:00 9,3 9,0 - - 11 6 - - S 1001,6 7 0 0,0
11.10.2018 23:00:00 9,5 9,1 - - 11 6 - - S 1002,0 7 0 0,0
11.10.2018 22:00:00 9,4 8,8 - - 15 8 - - S 1001,9 8 0 0,0
11.10.2018 21:00:00 9,5 8,9 - - 13 7 - - S 1000,8 6 0 0,0

tt = Température de l'air
td = dewpoint
tt -20cm = Température de l'air -20cm
tt -100cm = Température de l'air -100cm
ff = Vitesse du vent
fx = gusts
dd = Direction du vent
ppp = reduced air pressure
vv = visibility
sd = Ensoleillement
rr = Quantités de précipitations

stations d'obs. à proximité